Wind_Speed
4 4 5 6 7 8 8 9 10 11 13 14 15 17 18 19 19 20 20 12 11 11 10 8 8 7 6 6 5 7 5 3 6 7 5 2 4 1 3 4 3 6 4 3 20
5 6 6 7 8 9 10 10 11 12 13 14 15 17 17 19 19 18 12 12 9 7 5 4 4 8 5 6 6 4 4 11 7 5 4 2 1 6 5 8 4 7 8 8 19
6 7 8 8 9 10 10 11 11 12 13 14 15 17 17 16 13 6 8 1 6 4 3 2 4 6 3 4 5 5 6 5 4 8 4 1 6 4 0 4 5 4 8 15 26
7 9 9 10 10 11 11 11 11 13 14 15 16 16 17 12 3 6 3 5 4 1 4 3 4 4 3 4 5 2 7 6 2 7 4 2 2 2 9 12 14 14 6 16 26
9 9 9 10 11 11 11 11 12 13 15 14 16 16 14 6 4 6 3 3 5 6 6 4 4 2 2 3 3 3 3 5 9 10 10 11 10 8 11 13 16 15 9 16 28
9 9 10 10 11 12 12 12 13 15 14 14 15 15 11 3 8 7 6 6 5 5 4 6 2 3 4 2 3 1 1 6 7 3 8 6 7 6 2 4 8 8 10 18 27
10 10 10 10 11 12 12 13 14 16 15 13 12 13 7 5 10 9 7 7 7 7 7 6 7 5 2 2 3 3 3 5 5 7 6 3 9 7 22 25 17 9 10 17 25
10 10 10 11 12 12 13 15 16 15 11 8 8 8 4 11 15 9 15 8 13 15 15 9 8 7 5 3 4 3 2 1 5 2 5 10 7 4 3 5 8 7 9 15 21
10 10 11 12 12 12 12 15 14 11 8 5 5 5 4 3 20 16 16 13 13 7 9 15 7 8 4 5 4 4 4 3 5 3 1 5 1 3 12 18 15 11 10 13 18
10 11 11 13 13 10 10 11 6 11 8 8 12 4 16 19 9 22 15 10 9 7 5 8 7 4 3 4 6 6 4 2 3 3 7 6 9 10 24 20 17 19 16 16 16
11 12 12 13 11 9 10 4 2 4 17 12 14 18 14 17 10 32 29 9 11 11 5 5 2 5 8 7 6 3 3 4 2 3 7 5 9 13 19 27 16 22 20 18 18
12 13 13 10 7 10 11 5 7 7 10 20 23 13 19 22 16 31 30 13 7 4 7 5 5 2 6 7 10 8 13 12 2 4 4 8 17 12 8 13 21 23 23 20 17
13 15 15 3 6 12 7 6 2 5 4 5 11 20 28 18 9 19 26 9 5 5 6 4 5 12 9 7 7 11 14 5 8 3 5 5 15 15 7 14 26 26 23 22 19
14 14 15 4 3 9 7 5 3 5 4 9 8 7 20 15 4 10 13 9 4 7 6 9 8 7 3 5 7 12 6 10 8 5 4 6 6 6 4 7 8 19 17 18 21
14 16 14 15 7 4 2 3 4 3 4 12 4 5 19 8 9 5 13 8 3 8 3 7 9 14 14 15 5 4 5 12 12 8 4 6 4 5 6 8 8 7 18 17 19
13 15 15 18 16 6 1 2 3 5 3 6 4 10 8 12 3 6 7 9 5 3 5 14 17 8 15 17 22 12 6 2 5 6 10 13 9 4 5 5 4 7 19 21 20
11 12 15 18 22 4 2 5 5 7 3 7 7 11 10 6 5 3 8 5 1 3 7 19 5 4 12 17 17 18 11 4 7 7 5 8 8 16 10 6 4 6 17 17 18
12 11 14 16 18 3 5 6 10 4 5 5 8 13 4 7 5 9 6 5 4 2 3 3 9 3 7 5 4 18 18 8 8 5 6 9 7 6 2 8 12 14 16 19 20
16 17 24 19 16 4 4 7 6 3 4 7 11 4 4 7 2 6 5 3 5 5 3 7 9 10 17 16 13 12 15 17 3 2 3 4 4 3 11 12 17 19 23 24 26
7 8 20 17 13 11 7 7 2 3 5 3 4 6 6 7 6 6 4 4 4 4 5 5 13 8 2 13 13 6 12 15 4 4 3 4 1 1 11 14 16 17 24 31 34
7 4 18 11 12 16 4 4 2 8 13 5 3 4 4 4 3 3 4 6 3 7 5 4 4 11 10 4 4 8 11 6 5 3 4 1 3 8 11 13 16 17 28 32 38
6 4 20 8 8 4 3 3 6 8 8 4 2 3 3 4 4 2 4 4 14 8 7 1 4 7 11 14 4 3 5 11 4 4 2 1 3 8 13 14 21 25 31 35 35
6 3 21 4 4 3 3 4 3 5 5 5 3 2 1 2 4 5 6 6 14 9 6 8 4 7 6 6 13 8 4 3 2 2 2 3 0 13 19 18 25 27 33 35 32
4 3 9 17 7 3 2 4 6 9 4 8 4 4 6 2 4 5 6 6 15 8 12 9 4 9 11 9 10 9 29 23 9 4 3 6 12 18 21 20 21 30 35 31 30
4 3 3 3 7 6 3 4 5 5 3 12 4 3 2 4 3 6 4 6 7 7 6 3 3 5 12 17 31 24 27 27 26 15 7 9 13 18 18 16 15 26 34 32 35
5 6 7 5 4 5 9 5 3 5 1 5 4 13 2 2 2 5 7 5 6 7 3 2 2 1 5 14 14 26 23 24 27 24 13 10 10 19 26 18 14 27 36 34 37
14 15 6 7 4 1 3 4 4 8 6 8 8 3 3 3 15 12 8 5 7 9 3 3 3 2 3 9 7 22 20 12 18 17 16 15 16 19 20 16 23 34 39 35 36
Wind_Direction
343 340 334 327 324 321 319 319 322 321 318 316 315 314 313 311 310 308 307 290 282 257 245 249 241 217 189 172 150 141 77 181 225 167 231 181 32 103 330 315 346 210 252 216 177
333 330 330 325 324 322 320 317 318 316 312 311 310 307 309 310 314 314 307 274 260 231 235 243 215 191 178 173 173 110 131 212 204 204 201 297 42 346 356 337 347 327 308 214 189
329 325 324 322 322 321 318 316 315 313 310 309 309 310 314 324 328 358 2 149 190 181 164 183 181 182 180 169 192 160 189 198 220 236 249 207 296 287 216 296 246 43 326 200 192
329 328 327 326 323 320 319 316 315 315 313 311 313 317 320 336 339 350 27 121 153 276 314 296 211 185 158 191 192 193 241 183 223 211 283 251 276 281 234 237 252 297 302 207 197
330 329 327 328 324 321 320 318 315 311 311 317 322 325 333 339 315 327 249 207 293 298 306 291 245 193 202 212 175 191 240 213 241 272 278 275 256 242 255 256 272 274 249 223 208
335 336 334 331 325 320 323 320 313 308 310 319 322 333 347 2 337 311 242 247 270 309 302 258 245 250 273 261 188 337 306 292 289 250 283 270 259 231 182 177 258 262 240 227 220
339 339 334 328 324 324 324 318 312 308 311 313 322 332 353 21 353 26 357 263 260 291 283 264 246 237 149 286 296 310 313 325 229 233 235 18 289 224 248 250 259 244 242 235 232
342 341 335 328 326 326 328 325 322 319 316 310 322 339 72 62 28 10 332 317 278 267 265 258 247 249 215 240 3 5 75 27 295 182 251 151 250 5 115 208 245 257 248 242 239
343 341 335 327 324 326 334 332 337 6 30 29 25 32 57 38 3 8 1 332 317 285 260 252 265 225 162 99 3 2 243 178 308 233 188 182 248 195 333 329 311 308 284 268 263
343 337 331 323 324 331 345 340 354 38 39 70 26 55 29 356 48 8 4 3 336 302 274 255 218 175 76 123 228 201 227 230 218 351 21 312 279 300 311 312 304 300 290 279 270
346 340 335 333 335 345 2 343 335 43 57 78 76 47 14 8 338 16 6 349 18 61 14 330 310 222 215 209 185 173 204 184 199 299 349 279 285 289 292 290 280 283 281 276 265
8 2 346 341 12 6 3 79 73 118 82 80 57 26 19 5 12 15 4 34 30 356 335 350 266 21 341 244 228 212 238 245 262 233 218 278 277 273 260 267 274 276 277 270 261
37 27 14 13 10 356 36 54 99 111 100 72 40 35 14 359 43 8 17 6 356 324 309 226 271 309 288 277 248 245 241 221 234 220 266 318 287 278 254 239 267 266 265 263 253
43 33 29 17 6 21 48 30 150 124 86 347 360 16 5 352 49 3 9 26 347 305 315 276 246 226 255 228 219 255 227 235 231 168 238 162 282 262 277 271 252 267 264 262 251
44 35 35 37 21 27 62 78 113 132 60 329 314 331 338 19 283 344 351 337 248 275 245 251 319 290 260 242 226 252 238 214 218 219 207 243 294 266 206 255 265 269 270 268 261
43 30 20 22 19 24 125 168 134 46 304 322 309 329 334 339 253 299 339 304 281 264 250 257 269 246 248 251 233 229 267 258 171 197 232 225 203 215 213 226 230 238 265 272 276
39 15 15 21 13 43 85 141 42 83 300 320 300 324 331 314 301 356 320 306 198 3 317 313 271 242 230 236 254 246 195 233 203 198 214 182 193 249 285 308 17 333 330 314 292
48 47 34 22 9 22 145 61 65 258 275 271 301 311 302 337 331 314 297 320 350 185 286 287 319 222 160 190 267 234 201 197 182 166 187 182 201 245 40 82 24 350 329 319 299
67 62 45 32 20 66 100 53 174 238 293 310 323 343 318 345 331 341 335 283 240 202 308 300 270 277 259 278 205 217 230 204 131 98 127 187 222 58 16 7 2 348 333 326 316
6 14 26 12 31 79 71 102 118 233 323 334 342 19 319 326 342 0 314 262 284 251 206 271 288 296 250 304 215 221 190 198 250 159 174 226 202 82 13 353 345 340 331 323 314
328 37 9 28 47 56 85 80 359 21 21 3 357 291 277 295 280 293 280 277 250 293 287 274 242 285 306 9 130 193 189 191 174 201 160 177 136 29 13 350 341 332 327 320 309
71 52 356 18 55 39 55 9 354 353 355 4 328 265 259 298 288 283 264 226 335 303 321 309 287 288 302 305 336 6 160 208 131 193 109 69 126 37 19 356 354 337 329 318 306
80 56 28 96 79 4 15 345 54 352 319 4 314 241 243 271 303 276 315 296 354 350 2 351 316 317 350 77 38 46 348 274 126 71 109 151 173 27 2 347 357 340 330 319 325
95 37 35 47 58 89 22 4 352 348 327 349 271 297 316 257 226 291 288 305 327 321 337 354 327 42 68 49 79 55 50 48 47 43 49 40 322 358 349 344 344 336 334 329 348
76 75 53 353 16 36 55 12 350 349 346 1 337 298 274 306 325 322 291 299 327 327 337 41 56 146 110 59 61 56 45 42 44 27 38 347 336 355 336 324 316 341 337 348 356
110 125 90 46 15 21 13 8 322 318 283 313 330 318 298 252 17 307 337 340 27 330 328 302 292 296 12 360 37 49 34 39 34 25 17 360 357 344 329 337 5 354 349 355 354
115 118 106 11 6 59 347 296 294 327 272 256 291 291 295 259 304 277 248 296 326 339 313 309 333 321 341 343 338 33 5 31 34 24 11 13 330 335 342 355 18 1 356 355 349
Height
1506 1506 1506 1505 1504 1503 1502 1501 1500 1498 1497 1496 1494 1493 1491 1490 1489 1489 1488 1489 1488 1487 1489 1490 1490 1491 1493 1494 1496 1496 1513 1522 1511 1512 1501 1496 1496 1497 1498 1499 1499 1499 1497 1497 1499
1506 1506 1505 1504 1503 1502 1501 1500 1498 1497 1496 1495 1493 1492 1491 1489 1488 1487 1486 1485 1485 1486 1488 1488 1489 1491 1493 1493 1495 1497 1512 1507 1498 1496 1496 1495 1497 1499 1499 1498 1499 1499 1499 1498 1498
1506 1505 1504 1503 1502 1501 1500 1498 1497 1496 1495 1494 1492 1490 1489 1488 1487 1486 1485 1483 1485 1487 1488 1488 1489 1491 1492 1493 1494 1495 1502 1495 1493 1493 1494 1495 1496 1499 1500 1499 1499 1501 1501 1501 1500
1506 1505 1504 1503 1501 1500 1499 1497 1496 1495 1493 1492 1491 1489 1488 1489 1492 1487 1486 1486 1487 1487 1488 1488 1489 1490 1491 1492 1491 1495 1492 1493 1492 1492 1493 1494 1496 1497 1497 1497 1498 1499 1501 1501 1504
1505 1504 1503 1502 1500 1499 1498 1497 1495 1493 1492 1491 1490 1489 1488 1489 1489 1488 1488 1488 1487 1487 1487 1488 1489 1491 1491 1490 1490 1491 1491 1490 1491 1492 1491 1491 1492 1495 1492 1492 1495 1497 1499 1499 1502
1505 1503 1502 1500 1498 1497 1496 1495 1493 1491 1490 1490 1489 1488 1488 1490 1489 1487 1487 1488 1488 1487 1486 1487 1488 1490 1491 1490 1491 1489 1489 1490 1488 1488 1489 1489 1487 1490 1488 1488 1490 1493 1494 1495 1496
1504 1502 1501 1499 1497 1496 1495 1493 1491 1489 1489 1488 1488 1487 1487 1491 1489 1488 1488 1487 1487 1487 1486 1487 1489 1490 1490 1490 1489 1489 1490 1488 1486 1485 1486 1485 1481 1482 1480 1483 1485 1489 1490 1491 1492
1503 1502 1500 1498 1496 1495 1494 1491 1489 1487 1486 1487 1487 1487 1488 1490 1489 1487 1486 1485 1484 1484 1485 1486 1487 1488 1488 1489 1489 1490 1491 1495 1485 1483 1483 1485 1484 1479 1478 1481 1482 1484 1486 1487 1488
1502 1501 1499 1496 1495 1494 1493 1490 1488 1486 1485 1486 1487 1488 1490 1491 1488 1488 1486 1484 1482 1482 1483 1484 1485 1485 1487 1492 1498 1498 1500 1496 1488 1483 1482 1484 1481 1476 1477 1479 1480 1482 1483 1485 1485
1501 1500 1497 1495 1494 1493 1492 1490 1488 1488 1487 1487 1489 1492 1494 1496 1491 1488 1486 1483 1481 1480 1481 1482 1483 1483 1488 1493 1500 1497 1498 1498 1491 1487 1486 1488 1483 1478 1475 1475 1477 1477 1480 1481 1482
1501 1499 1496 1494 1492 1493 1492 1491 1493 1493 1489 1494 1499 1498 1498 1495 1493 1488 1486 1483 1482 1482 1488 1484 1486 1486 1487 1485 1485 1486 1491 1492 1491 1487 1491 1489 1485 1477 1476 1470 1472 1474 1475 1476 1477
1501 1498 1495 1493 1493 1492 1492 1490 1492 1497 1499 1498 1500 1500 1498 1495 1492 1491 1489 1488 1488 1492 1488 1489 1488 1482 1482 1482 1481 1483 1483 1485 1488 1487 1490 1490 1477 1472 1471 1466 1464 1466 1467 1470 1472
1502 1499 1496 1494 1494 1493 1492 1493 1493 1495 1497 1501 1500 1500 1501 1497 1497 1497 1493 1492 1491 1490 1490 1491 1483 1481 1482 1483 1481 1479 1478 1485 1488 1486 1486 1488 1474 1464 1460 1459 1456 1455 1459 1462 1466
1503 1501 1498 1495 1496 1494 1493 1493 1493 1494 1501 1508 1503 1503 1501 1498 1498 1498 1496 1497 1495 1493 1490 1485 1477 1477 1478 1479 1479 1479 1476 1477 1481 1489 1498 1486 1489 1462 1457 1455 1451 1450 1453 1456 1459
1505 1502 1499 1496 1495 1494 1495 1494 1494 1496 1534 1510 1505 1504 1503 1504 1502 1498 1496 1493 1493 1492 1492 1483 1481 1478 1472 1470 1474 1473 1470 1471 1475 1481 1487 1486 1493 1463 1457 1455 1451 1450 1450 1452 1454
1506 1503 1500 1497 1494 1494 1493 1493 1496 1510 1548 1512 1506 1504 1502 1501 1499 1496 1495 1493 1490 1489 1485 1483 1478 1476 1470 1467 1463 1467 1469 1468 1470 1478 1483 1477 1485 1461 1457 1450 1448 1448 1447 1449 1450
1507 1504 1500 1497 1494 1492 1492 1494 1511 1543 1519 1514 1509 1504 1504 1501 1498 1496 1495 1492 1496 1500 1487 1477 1469 1464 1463 1468 1465 1463 1467 1476 1470 1470 1469 1464 1477 1449 1445 1446 1450 1449 1445 1444 1444
1508 1506 1502 1498 1496 1493 1493 1498 1538 1525 1520 1512 1508 1506 1507 1504 1500 1496 1494 1495 1495 1494 1497 1493 1474 1461 1461 1468 1467 1459 1452 1458 1455 1457 1462 1456 1462 1448 1443 1446 1447 1447 1446 1443 1440
1509 1507 1502 1500 1496 1493 1495 1530 1538 1525 1521 1516 1510 1509 1507 1506 1506 1501 1498 1499 1498 1490 1492 1485 1468 1453 1454 1458 1461 1451 1453 1445 1444 1456 1456 1455 1447 1443 1442 1444 1444 1444 1442 1440 1437
1510 1507 1505 1503 1500 1497 1500 1520 1522 1522 1520 1518 1520 1516 1516 1511 1509 1505 1500 1497 1492 1487 1485 1483 1469 1444 1444 1447 1445 1446 1438 1453 1452 1459 1452 1443 1447 1452 1450 1450 1447 1445 1443 1436 1432
1511 1510 1509 1505 1504 1501 1525 1524 1523 1522 1521 1522 1522 1520 1516 1515 1510 1508 1502 1494 1490 1485 1483 1480 1478 1447 1443 1437 1431 1445 1440 1447 1452 1446 1451 1441 1452 1461 1461 1459 1455 1450 1445 1439 1431
1512 1515 1513 1509 1509 1518 1526 1525 1524 1524 1522 1522 1521 1519 1518 1514 1510 1507 1503 1497 1490 1486 1484 1482 1473 1458 1447 1444 1443 1439 1442 1444 1451 1447 1442 1453 1456 1465 1463 1461 1456 1450 1444 1436 1428
1515 1518 1516 1512 1530 1530 1526 1526 1525 1525 1524 1522 1521 1520 1517 1514 1514 1504 1499 1492 1491 1488 1486 1484 1472 1459 1433 1445 1450 1458 1449 1443 1438 1442 1445 1459 1454 1461 1465 1462 1453 1449 1444 1433 1420
1518 1524 1522 1521 1525 1527 1528 1530 1528 1526 1524 1523 1520 1518 1517 1513 1512 1507 1503 1495 1491 1489 1488 1487 1482 1478 1476 1478 1469 1470 1459 1460 1448 1455 1458 1471 1470 1470 1467 1460 1453 1449 1442 1431 1417
1520 1528 1530 1537 1531 1530 1529 1532 1530 1529 1525 1523 1519 1519 1520 1512 1510 1506 1503 1495 1491 1490 1489 1489 1483 1480 1482 1480 1466 1476 1477 1476 1481 1484 1484 1485 1477 1477 1472 1465 1459 1456 1444 1427 1413
1521 1526 1532 1534 1533 1532 1533 1534 1534 1531 1528 1525 1524 1516 1516 1516 1514 1511 1507 1502 1502 1493 1491 1489 1485 1480 1476 1475 1471 1480 1489 1489 1491 1494 1489 1483 1478 1480 1472 1464 1460 1455 1441 1426 1417
1521 1526 1530 1539 1537 1537 1540 1537 1533 1533 1525 1523 1521 1518 1514 1511 1508 1507 1506 1508 1507 1500 1493 1489 1487 1481 1483 1480 1468 1475 1504 1505 1511 1507 1504 1494 1494 1481 1468 1464 1462 1453 1442 1432 1425